• In Hungary
  • List of Countries
  • For 7 days
  • Water Temperature
  • Satellite Maps
  • Weather Map
  • News
  • Weather Widgets
  • user-avatar
    Login

    Hourly Weather Urozhaynyy

    Today, 24 June, Sunday

    Time Temperature Precipitation Wind Pressure Humidity
    00:00 +21°C° 0 mm 1 mps 750 mmHg 63%
    01:00 +21°C° 0 mm 1 mps 750 mmHg 65%
    02:00 +20°C° 0 mm 1 mps 751 mmHg 66%
    03:00 +20°C° 0 mm 1 mps 751 mmHg 67%
    04:00 +21°C° 0 mm 1 mps 751 mmHg 66%
    05:00 +22°C° 0 mm 1 mps 751 mmHg 64%
    06:00 +23°C° 0 mm 1 mps 751 mmHg 62%
    07:00 +25°C° 0 mm 1 mps 751 mmHg 57%
    08:00 +27°C° 0 mm 2 mps 751 mmHg 53%
    09:00 +28°C° 0 mm 2 mps 751 mmHg 48%
    10:00 +29°C° 0 mm 2 mps 751 mmHg 45%
    11:00 +30°C° 0 mm 2 mps 751 mmHg 42%
    12:00 +31°C° 0 mm 2 mps 751 mmHg 40%
    13:00 +31°C° 0 mm 2 mps 751 mmHg 38%
    14:00 +32°C° 0 mm 2 mps 751 mmHg 37%
    15:00 +32°C° 0 mm 2 mps 751 mmHg 36%
    16:00 +32°C° 0 mm 2 mps 751 mmHg 38%
    17:00 +32°C° 0 mm 2 mps 751 mmHg 41%
    18:00 +32°C° 0 mm 2 mps 751 mmHg 43%
    19:00 +30°C° 0 mm 2 mps 751 mmHg 47%
    20:00 +28°C° 0 mm 2 mps 752 mmHg 50%
    21:00 +26°C° 0 mm 2 mps 752 mmHg 54%
    22:00 +25°C° 0 mm 2 mps 752 mmHg 56%
    23:00 +25°C° 0 mm 3 mps 752 mmHg 58%

    Tomorrow, 25 June, Monday

    Time Temperature Precipitation Wind Pressure Humidity
    00:00 +24°C° 0 mm 3 mps 752 mmHg 60%
    01:00 +22°C° 0 mm 3 mps 752 mmHg 61%
    02:00 +22°C° 0 mm 3 mps 752 mmHg 62%
    03:00 +21°C° 0 mm 3 mps 753 mmHg 64%
    04:00 +22°C° 0 mm 3 mps 753 mmHg 63%
    05:00 +24°C° 0 mm 3 mps 753 mmHg 61%
    06:00 +25°C° 0 mm 3 mps 753 mmHg 60%
    07:00 +27°C° 0 mm 3 mps 753 mmHg 55%
    08:00 +28°C° 0 mm 3 mps 753 mmHg 49%
    09:00 +30°C° 0 mm 3 mps 754 mmHg 44%
    10:00 +31°C° 0 mm 3 mps 754 mmHg 41%
    11:00 +33°C° 0 mm 3 mps 753 mmHg 38%
    12:00 +34°C° 0 mm 3 mps 753 mmHg 36%
    13:00 +34°C° 0 mm 2 mps 753 mmHg 34%
    14:00 +34°C° 0 mm 2 mps 753 mmHg 33%
    15:00 +35°C° 0 mm 2 mps 753 mmHg 32%
    16:00 +34°C° 0 mm 2 mps 753 mmHg 35%
    17:00 +34°C° 0 mm 2 mps 753 mmHg 37%
    18:00 +34°C° 0 mm 2 mps 753 mmHg 40%
    19:00 +31°C° 0 mm 2 mps 753 mmHg 44%
    20:00 +29°C° 0 mm 2 mps 753 mmHg 47%
    21:00 +27°C° 0 mm 2 mps 753 mmHg 51%
    22:00 +26°C° 0 mm 2 mps 753 mmHg 52%
    23:00 +26°C° 0 mm 2 mps 753 mmHg 54%

    Day after tomorrow, 26 June, Tuesday

    Time Temperature Precipitation Wind Pressure Humidity
    00:00 +25°C° 0 mm 2 mps 753 mmHg 55%
    01:00 +25°C° 0 mm 2 mps 753 mmHg 56%
    02:00 +24°C° 0 mm 2 mps 753 mmHg 57%
    03:00 +24°C° 0 mm 1 mps 753 mmHg 57%
    04:00 +25°C° 0 mm 1 mps 754 mmHg 56%
    05:00 +26°C° 0 mm 1 mps 754 mmHg 55%
    06:00 +27°C° 0 mm 1 mps 754 mmHg 54%
    07:00 +28°C° 0 mm 2 mps 754 mmHg 51%
    08:00 +30°C° 0 mm 2 mps 754 mmHg 48%
    09:00 +31°C° 0 mm 2 mps 754 mmHg 45%
    10:00 +33°C° 0 mm 3 mps 754 mmHg 44%
    11:00 +34°C° 0 mm 3 mps 754 mmHg 42%
    12:00 +35°C° 0 mm 3 mps 753 mmHg 41%
    13:00 +35°C° 0 mm 3 mps 753 mmHg 42%
    14:00 +35°C° 0 mm 4 mps 753 mmHg 43%
    15:00 +35°C° 0 mm 4 mps 753 mmHg 43%
    16:00 +34°C° 0 mm 4 mps 753 mmHg 46%
    17:00 +34°C° 0 mm 4 mps 753 mmHg 49%
    18:00 +33°C° 0 mm 3 mps 753 mmHg 52%
    19:00 +31°C° 0 mm 3 mps 753 mmHg 57%
    20:00 +29°C° 0 mm 3 mps 753 mmHg 62%
    21:00 +27°C° 0 mm 3 mps 753 mmHg 68%
    22:00 +27°C° 0 mm 3 mps 753 mmHg 71%
    23:00 +26°C° 0 mm 3 mps 753 mmHg 75%

    27 June, Wednesday

    Time Temperature Precipitation Wind Pressure Humidity
    00:00 +25°C° 0 mm 3 mps 753 mmHg 78%
    01:00 +25°C° 0 mm 3 mps 753 mmHg 80%
    02:00 +24°C° 0 mm 3 mps 753 mmHg 83%
    03:00 +24°C° 0 mm 3 mps 753 mmHg 86%
    04:00 +25°C° 0 mm 3 mps 753 mmHg 83%
    05:00 +26°C° 0 mm 3 mps 753 mmHg 80%
    06:00 +26°C° 0 mm 3 mps 753 mmHg 78%
    07:00 +28°C° 0 mm 3 mps 753 mmHg 71%
    08:00 +29°C° 0 mm 4 mps 753 mmHg 63%
    09:00 +32°C° 0 mm 4 mps 753 mmHg 56%
    10:00 +33°C° 0 mm 4 mps 753 mmHg 51%
    11:00 +34°C° 0 mm 4 mps 752 mmHg 45%
    12:00 +35°C° 0 mm 3 mps 752 mmHg 40%
    13:00 +35°C° 0 mm 3 mps 752 mmHg 38%
    14:00 +35°C° 0 mm 3 mps 752 mmHg 36%
    15:00 +36°C° 0 mm 3 mps 752 mmHg 34%
    16:00 +35°C° 0 mm 3 mps 752 mmHg 38%
    17:00 +35°C° 0 mm 3 mps 752 mmHg 42%
    18:00 +34°C° 0 mm 3 mps 752 mmHg 45%
    19:00 +31°C° 0 mm 3 mps 752 mmHg 52%
    20:00 +29°C° 0 mm 3 mps 752 mmHg 58%
    21:00 +28°C° 0 mm 3 mps 752 mmHg 64%
    22:00 +27°C° 0 mm 3 mps 752 mmHg 68%
    23:00 +26°C° 0 mm 3 mps 752 mmHg 72%

    28 June, Thursday

    Time Temperature Precipitation Wind Pressure Humidity
    00:00 +25°C° 0 mm 3 mps 752 mmHg 76%
    01:00 +25°C° 0 mm 3 mps 752 mmHg 79%
    02:00 +24°C° 0 mm 2 mps 752 mmHg 81%
    03:00 +24°C° 0 mm 2 mps 753 mmHg 84%
    04:00 +25°C° 0 mm 3 mps 753 mmHg 81%
    05:00 +25°C° 0 mm 3 mps 753 mmHg 78%
    06:00 +26°C° 0 mm 3 mps 753 mmHg 75%
    07:00 +27°C° 0 mm 3 mps 753 mmHg 68%
    08:00 +29°C° 0 mm 4 mps 753 mmHg 61%
    09:00 +30°C° 0 mm 4 mps 753 mmHg 53%
    10:00 +32°C° 0 mm 4 mps 753 mmHg 50%
    11:00 +33°C° 0 mm 4 mps 753 mmHg 46%
    12:00 +34°C° 0 mm 4 mps 752 mmHg 43%
    13:00 +34°C° 0 mm 5 mps 752 mmHg 43%
    14:00 +34°C° 0 mm 5 mps 752 mmHg 43%
    15:00 +34°C° 0 mm 5 mps 752 mmHg 43%
    16:00 +34°C° 0 mm 5 mps 752 mmHg 46%
    17:00 +33°C° 0 mm 5 mps 752 mmHg 50%
    18:00 +32°C° 0 mm 4 mps 752 mmHg 53%
    19:00 +30°C° 0.1 mm 4 mps 752 mmHg 60%
    20:00 +28°C° 0.1 mm 4 mps 752 mmHg 66%
    21:00 +26°C° 0.1 mm 4 mps 752 mmHg 73%
    22:00 +25°C° 0.2 mm 4 mps 753 mmHg 76%
    23:00 +25°C° 0.2 mm 3 mps 753 mmHg 80%

    29 June, Friday

    Time Temperature Precipitation Wind Pressure Humidity
    00:00 +24°C° 0.2 mm 3 mps 753 mmHg 83%
    01:00 +24°C° 0 mm 3 mps 753 mmHg 84%
    02:00 +22°C° 0 mm 3 mps 753 mmHg 85%
    03:00 +21°C° 0 mm 3 mps 753 mmHg 86%
    04:00 +22°C° 0 mm 4 mps 753 mmHg 81%
    05:00 +23°C° 0 mm 4 mps 753 mmHg 76%
    06:00 +23°C° 0 mm 4 mps 753 mmHg 71%
    07:00 +26°C° 0 mm 4 mps 753 mmHg 62%
    08:00 +28°C° 0 mm 5 mps 753 mmHg 53%
    09:00 +29°C° 0 mm 5 mps 753 mmHg 43%
    10:00 +30°C° 0 mm 5 mps 753 mmHg 40%
    11:00 +32°C° 0 mm 5 mps 753 mmHg 36%
    12:00 +33°C° 0 mm 5 mps 753 mmHg 33%
    13:00 +33°C° 0 mm 4 mps 753 mmHg 32%
    14:00 +33°C° 0 mm 4 mps 753 mmHg 32%
    15:00 +34°C° 0 mm 4 mps 753 mmHg 31%
    16:00 +33°C° 0 mm 4 mps 753 mmHg 35%
    17:00 +32°C° 0 mm 4 mps 753 mmHg 39%
    18:00 +32°C° 0 mm 4 mps 753 mmHg 42%
    19:00 +29°C° 0 mm 4 mps 753 mmHg 48%
    20:00 +27°C° 0 mm 4 mps 753 mmHg 53%
    21:00 +25°C° 0 mm 4 mps 753 mmHg 59%
    22:00 +23°C° 0 mm 4 mps 753 mmHg 63%
    23:00 +23°C° 0 mm 4 mps 753 mmHg 66%
    Show more